User: anonymous   Login
Location: Oakhurst
(33.6448°N, 111.9543°W)
Time: 06:52:31
(UTC+00:00)
Language:

DUCHIFAT 1 - Orbit

View from above orbital plane
View from above orbital plane
View from above satellite
View from above satellite

Ground track
Ground track

The orbit data is extracted from the following two-line orbital elements,

1 40021U 14033M   21209.79735566  .00000727  00000-0  78588-4 0  9996
2 40021  97.9732 150.4332 0013695  33.5553 326.6530 14.91400845386448
Epoch (UTC): 28 July 2021 19:08:11
Eccentricity: 0.0013695
inclination: 97.9732°
perigee height: 584 km
apogee height: 603 km
right ascension of ascending node: 150.4332°
argument of perigee: 33.5553°
revolutions per day: 14.91400845
mean anomaly at epoch: 326.6530°
orbit number at epoch: 38644

The dashed part of the orbit path shows where the satellite is in the earth's shadow,  

DLR